{"data":{"norad_id":64336,"intl_designator":"2025-124V","name":"STARLINK-34223","alt_names":[],"object_type":"PAYLOAD","status":"ACTIVE","operator":null,"country":"US","launch_date":"2025-06-10","launch_site_code":"AFETR","launch_vehicle":null,"mission":null,"orbit_class":"UNKNOWN","rcs_meters":null,"size_class":null,"mass_kg":null,"dimensions":null,"purposes":["comms"],"wikipedia_slug":null,"has_3d_model":false,"image_url":null,"decayed_at":null,"tle_current":{"epoch":"2026-09-20T06:39:13.262976Z","epoch_age_seconds":153513,"freshness":"FRESH","line1":"1 64336U 25124V   26263.27723684  .00014310  00000+0  52845-3 0  9999","line2":"2 64336  43.0028  99.0056 0001486 272.3257  87.7425 15.27585351 71583","mean_motion":15.27585351,"eccentricity":0.0001486,"inclination_deg":43.0028,"raan_deg":99.0056,"arg_perigee_deg":272.3257,"mean_anomaly_deg":87.7425,"bstar":0.00052845,"rev_number":7158,"period_min":94.266418505345,"perigee_km":482.01350339453,"apogee_km":484.0526431403,"semimajor_km":6861.1700732674,"source":"CELESTRAK","updated_at":"2026-09-21T09:00:35.314564Z"}}}